Time,TemperatureF,DewpointF,PressureIn,WindDirection,WindDirectionDegrees,WindSpeedMPH,WindSpeedGustMPH,Humidity,HourlyPrecipIn,Conditions,Clouds,dailyrainin,SoftwareType,DateUTC
2013-05-25 00:06:00,47.3,41.1,29.86,SW,225,1.7,-999.0,79,-99.99,,,0.00,Acu-Link.com,2013-05-25 07:06:00,
2013-05-25 00:21:00,47.5,41.0,29.85,East,90,4.2,-999.0,78,-99.99,,,0.00,Acu-Link.com,2013-05-25 07:21:00,
2013-05-25 00:36:00,47.5,41.0,29.85,SSE,157,0.0,-999.0,78,-99.99,,,0.00,Acu-Link.com,2013-05-25 07:36:00,
2013-05-25 00:51:00,46.9,40.4,29.85,WNW,292,0.0,-999.0,78,-99.99,,,0.00,Acu-Link.com,2013-05-25 07:51:00,
2013-05-25 01:07:00,46.2,40.1,29.86,North,0,0.0,-999.0,79,-99.99,,,0.00,Acu-Link.com,2013-05-25 08:07:00,
2013-05-25 01:22:00,46.2,41.0,29.85,ENE,67,0.0,-999.0,82,-99.99,,,0.00,Acu-Link.com,2013-05-25 08:22:00,
2013-05-25 01:37:00,46.4,41.2,29.86,SW,225,1.7,-999.0,82,-99.99,,,0.00,Acu-Link.com,2013-05-25 08:37:00,
2013-05-25 01:52:00,46.4,41.5,29.86,SW,225,1.7,-999.0,83,-99.99,,,0.00,Acu-Link.com,2013-05-25 08:52:00,
2013-05-25 02:07:00,46.2,41.6,29.86,WSW,247,2.7,-999.0,84,-99.99,,,0.00,Acu-Link.com,2013-05-25 09:07:00,
2013-05-25 02:25:00,46.9,42.3,29.85,SSE,157,1.7,-999.0,84,-99.99,,,0.00,Acu-Link.com,2013-05-25 09:25:00,
2013-05-25 02:40:00,47.3,42.7,29.85,SW,225,3.7,-999.0,84,-99.99,,,0.00,Acu-Link.com,2013-05-25 09:40:00,
2013-05-25 02:55:00,47.7,42.8,29.86,SSE,157,2.2,-999.0,83,-99.99,,,0.00,Acu-Link.com,2013-05-25 09:55:00,
2013-05-25 03:10:00,47.5,42.3,29.85,SW,225,1.1,-999.0,82,-99.99,,,0.00,Acu-Link.com,2013-05-25 10:10:00,
2013-05-25 03:26:00,46.9,42.3,29.86,SSW,202,1.1,-999.0,84,-99.99,,,0.00,Acu-Link.com,2013-05-25 10:26:00,
2013-05-25 03:41:00,47.3,42.7,29.85,SW,225,1.7,-999.0,84,-99.99,,,0.00,Acu-Link.com,2013-05-25 10:41:00,
2013-05-25 03:56:00,46.4,42.1,29.86,SW,225,1.7,-999.0,85,-99.99,,,0.00,Acu-Link.com,2013-05-25 10:56:00,
2013-05-25 04:11:00,46.2,41.9,29.85,NNW,337,1.1,-999.0,85,-99.99,,,0.00,Acu-Link.com,2013-05-25 11:11:00,
2013-05-25 04:27:00,45.9,42.0,29.85,West,270,0.0,-999.0,86,-99.99,,,0.00,Acu-Link.com,2013-05-25 11:27:00,
2013-05-25 04:42:00,46.0,41.7,29.86,SW,225,3.7,-999.0,85,-99.99,,,0.00,Acu-Link.com,2013-05-25 11:42:00,
2013-05-25 04:57:00,45.5,41.3,29.85,SW,225,0.0,-999.0,85,-99.99,,,0.00,Acu-Link.com,2013-05-25 11:57:00,
2013-05-25 05:12:00,45.0,41.4,29.86,West,270,0.0,-999.0,87,-99.99,,,0.00,Acu-Link.com,2013-05-25 12:12:00,
2013-05-25 05:27:00,45.3,41.7,29.87,West,270,0.0,-999.0,87,-99.99,,,0.00,Acu-Link.com,2013-05-25 12:27:00,
2013-05-25 05:43:00,45.5,41.9,29.88,WNW,292,2.2,-999.0,87,-99.99,,,0.00,Acu-Link.com,2013-05-25 12:43:00,
2013-05-25 05:58:00,46.0,42.6,29.87,WSW,247,4.2,-999.0,88,-99.99,,,0.00,Acu-Link.com,2013-05-25 12:58:00,
2013-05-25 06:13:00,46.4,42.7,29.87,SW,225,2.7,-999.0,87,-99.99,,,0.00,Acu-Link.com,2013-05-25 13:13:00,
2013-05-25 06:28:00,47.5,43.2,29.87,South,180,3.7,-999.0,85,-99.99,,,0.00,Acu-Link.com,2013-05-25 13:28:00,
2013-05-25 06:43:00,49.3,44.0,29.87,South,180,2.2,-999.0,82,-99.99,,,0.00,Acu-Link.com,2013-05-25 13:43:00,
2013-05-25 06:59:00,51.6,43.9,29.88,South,180,1.7,-999.0,75,-99.99,,,0.00,Acu-Link.com,2013-05-25 13:59:00,
2013-05-25 07:14:00,54.0,44.4,29.88,West,270,1.7,-999.0,70,-99.99,,,0.00,Acu-Link.com,2013-05-25 14:14:00,
2013-05-25 07:29:00,56.8,44.3,29.89,West,270,0.0,-999.0,63,-99.99,,,0.00,Acu-Link.com,2013-05-25 14:29:00,
2013-05-25 07:44:00,60.4,45.6,29.89,NW,315,0.0,-999.0,58,-99.99,,,0.00,Acu-Link.com,2013-05-25 14:44:00,
2013-05-25 07:59:00,61.3,45.9,29.89,NNE,22,2.2,-999.0,57,-99.99,,,0.00,Acu-Link.com,2013-05-25 14:59:00,
2013-05-25 08:15:00,62.2,45.3,29.88,SE,135,2.2,-999.0,54,-99.99,,,0.00,Acu-Link.com,2013-05-25 15:15:00,
2013-05-25 08:30:00,64.0,46.5,29.88,ESE,112,0.0,-999.0,53,-99.99,,,0.00,Acu-Link.com,2013-05-25 15:30:00,
2013-05-25 08:45:00,67.5,47.1,29.88,ENE,67,2.2,-999.0,48,-99.99,,,0.00,Acu-Link.com,2013-05-25 15:45:00,
2013-05-25 09:00:00,66.9,46.6,29.88,ENE,67,6.3,-999.0,48,-99.99,,,0.00,Acu-Link.com,2013-05-25 16:00:00,
2013-05-25 09:15:00,61.9,45.1,29.88,SW,225,4.7,-999.0,54,-99.99,,,0.00,Acu-Link.com,2013-05-25 16:15:00,
2013-05-25 09:31:00,60.6,45.7,29.90,WNW,292,5.3,-999.0,58,-99.99,,,0.00,Acu-Link.com,2013-05-25 16:31:00,
2013-05-25 09:46:00,61.5,46.1,29.89,SW,225,2.7,-999.0,57,-99.99,,,0.00,Acu-Link.com,2013-05-25 16:46:00,
2013-05-25 10:01:00,61.7,45.8,29.89,West,270,4.2,-999.0,56,-99.99,,,0.00,Acu-Link.com,2013-05-25 17:01:00,
2013-05-25 10:16:00,61.3,45.9,29.89,WNW,292,4.2,-999.0,57,-99.99,,,0.00,Acu-Link.com,2013-05-25 17:16:00,
2013-05-25 10:32:00,62.8,47.3,29.89,SSE,157,2.7,-999.0,57,-99.99,,,0.00,Acu-Link.com,2013-05-25 17:32:00,
2013-05-25 10:47:00,61.5,46.1,29.89,ESE,112,2.7,-999.0,57,-99.99,,,0.00,Acu-Link.com,2013-05-25 17:47:00,
2013-05-25 11:02:00,61.0,46.6,29.89,West,270,3.7,-999.0,59,-99.99,,,0.00,Acu-Link.com,2013-05-25 18:02:00,
2013-05-25 11:17:00,61.3,46.8,29.90,ESE,112,2.2,-999.0,59,-99.99,,,0.00,Acu-Link.com,2013-05-25 18:17:00,
2013-05-25 11:32:00,61.9,46.5,29.90,ENE,67,2.7,-999.0,57,-99.99,,,0.00,Acu-Link.com,2013-05-25 18:32:00,
2013-05-25 11:48:00,63.7,48.6,29.89,WSW,247,2.2,-999.0,58,-99.99,,,0.00,Acu-Link.com,2013-05-25 18:48:00,
2013-05-25 12:03:00,64.2,47.7,29.89,SSE,157,3.2,-999.0,55,-99.99,,,0.00,Acu-Link.com,2013-05-25 19:03:00,
2013-05-25 12:18:00,64.6,47.6,29.90,North,0,2.7,-999.0,54,-99.99,,,0.00,Acu-Link.com,2013-05-25 19:18:00,
2013-05-25 12:33:00,65.1,47.0,29.90,SSE,157,2.7,-999.0,52,-99.99,,,0.00,Acu-Link.com,2013-05-25 19:33:00,
2013-05-25 12:48:00,66.0,46.8,29.90,ENE,67,2.7,-999.0,50,-99.99,,,0.00,Acu-Link.com,2013-05-25 19:48:00,
2013-05-25 13:04:00,65.7,47.6,29.91,NE,45,4.2,-999.0,52,-99.99,,,0.00,Acu-Link.com,2013-05-25 20:04:00,
2013-05-25 13:19:00,65.1,46.5,29.89,SSW,202,2.2,-999.0,51,-99.99,,,0.00,Acu-Link.com,2013-05-25 20:19:00,
2013-05-25 13:34:00,65.5,47.4,29.90,SSE,157,4.7,-999.0,52,-99.99,,,0.00,Acu-Link.com,2013-05-25 20:34:00,
2013-05-25 13:49:00,65.8,47.2,29.89,West,270,6.8,-999.0,51,-99.99,,,0.00,Acu-Link.com,2013-05-25 20:49:00,
2013-05-25 14:04:00,65.3,47.2,29.91,South,180,9.4,-999.0,52,-99.99,,,0.00,Acu-Link.com,2013-05-25 21:04:00,
2013-05-25 14:20:00,64.0,47.5,29.89,NW,315,4.7,-999.0,55,-99.99,,,0.00,Acu-Link.com,2013-05-25 21:20:00,
2013-05-25 14:35:00,63.0,48.0,29.89,SSW,202,4.2,-999.0,58,-99.99,,,0.00,Acu-Link.com,2013-05-25 21:35:00,
2013-05-25 14:50:00,63.9,47.9,29.89,North,0,3.7,-999.0,56,-99.99,,,0.00,Acu-Link.com,2013-05-25 21:50:00,
2013-05-25 15:05:00,63.7,48.2,29.89,SW,225,2.2,-999.0,57,-99.99,,,0.00,Acu-Link.com,2013-05-25 22:05:00,
2013-05-25 15:21:00,62.4,47.4,29.90,SW,225,7.3,-999.0,58,-99.99,,,0.00,Acu-Link.com,2013-05-25 22:21:00,
2013-05-25 15:36:00,61.2,46.8,29.90,West,270,5.3,-999.0,59,-99.99,,,0.00,Acu-Link.com,2013-05-25 22:36:00,
2013-05-25 15:51:00,61.2,46.8,29.90,SSW,202,5.3,-999.0,59,-99.99,,,0.00,Acu-Link.com,2013-05-25 22:51:00,
2013-05-25 16:06:00,60.8,46.8,29.90,SSE,157,6.3,-999.0,60,-99.99,,,0.00,Acu-Link.com,2013-05-25 23:06:00,
2013-05-25 16:21:00,60.8,48.1,29.89,SW,225,3.7,-999.0,63,-99.99,,,0.00,Acu-Link.com,2013-05-25 23:21:00,
2013-05-25 16:37:00,59.4,46.8,29.89,North,0,2.7,-999.0,63,-99.99,,,0.00,Acu-Link.com,2013-05-25 23:37:00,
2013-05-25 16:52:00,60.8,47.3,29.89,ESE,112,4.2,-999.0,61,-99.99,,,0.00,Acu-Link.com,2013-05-25 23:52:00,
2013-05-25 17:07:00,59.4,46.8,29.89,NNW,337,6.8,-999.0,63,-99.99,,,0.00,Acu-Link.com,2013-05-26 00:07:00,
2013-05-25 17:22:00,58.5,47.2,29.90,SW,225,8.3,-999.0,66,-99.99,,,0.00,Acu-Link.com,2013-05-26 00:22:00,
2013-05-25 17:37:00,58.1,47.2,29.90,NNE,22,3.2,-999.0,67,-99.99,,,0.00,Acu-Link.com,2013-05-26 00:37:00,
2013-05-25 17:53:00,57.9,47.0,29.89,NNW,337,4.2,-999.0,67,-99.99,,,0.00,Acu-Link.com,2013-05-26 00:53:00,
2013-05-25 18:08:00,58.1,47.6,29.88,North,0,5.3,-999.0,68,-99.99,,,0.00,Acu-Link.com,2013-05-26 01:08:00,
2013-05-25 18:23:00,58.3,47.8,29.88,SW,225,6.3,-999.0,68,-99.99,,,0.00,Acu-Link.com,2013-05-26 01:23:00,
2013-05-25 18:38:00,55.8,46.9,29.87,SW,225,3.7,-999.0,72,-99.99,,,0.00,Acu-Link.com,2013-05-26 01:38:00,
2013-05-25 18:53:00,54.5,46.0,29.87,ESE,112,4.7,-999.0,73,-99.99,,,0.00,Acu-Link.com,2013-05-26 01:53:00,
2013-05-25 19:09:00,53.8,46.1,29.88,WSW,247,8.3,-999.0,75,-99.99,,,0.00,Acu-Link.com,2013-05-26 02:09:00,
2013-05-25 19:24:00,53.4,46.4,29.88,SW,225,4.2,-999.0,77,-99.99,,,0.00,Acu-Link.com,2013-05-26 02:24:00,
2013-05-25 19:39:00,52.9,46.6,29.88,South,180,7.8,-999.0,79,-99.99,,,0.00,Acu-Link.com,2013-05-26 02:39:00,
2013-05-25 19:54:00,52.3,46.6,29.87,ESE,112,4.2,-999.0,81,-99.99,,,0.00,Acu-Link.com,2013-05-26 02:54:00,
2013-05-25 20:10:00,52.2,46.9,29.88,WSW,247,5.3,-999.0,82,-99.99,,,0.00,Acu-Link.com,2013-05-26 03:10:00,
2013-05-25 20:25:00,51.6,46.9,29.89,WSW,247,6.3,-999.0,84,-99.99,,,0.00,Acu-Link.com,2013-05-26 03:25:00,
2013-05-25 20:40:00,51.8,47.1,29.89,West,270,2.7,-999.0,84,-99.99,,,0.00,Acu-Link.com,2013-05-26 03:40:00,
2013-05-25 20:55:00,52.0,47.3,29.88,ESE,112,2.7,-999.0,84,-99.99,,,0.00,Acu-Link.com,2013-05-26 03:55:00,
2013-05-25 21:10:00,52.2,47.2,29.90,SSW,202,10.4,-999.0,83,-99.99,,,0.00,Acu-Link.com,2013-05-26 04:10:00,
2013-05-25 21:26:00,52.0,47.3,29.88,South,180,4.7,-999.0,84,-99.99,,,0.00,Acu-Link.com,2013-05-26 04:26:00,
2013-05-25 21:41:00,52.0,47.0,29.90,WSW,247,4.2,-999.0,83,-99.99,,,0.00,Acu-Link.com,2013-05-26 04:41:00,
2013-05-25 21:56:00,52.0,47.0,29.90,SW,225,5.8,-999.0,83,-99.99,,,0.00,Acu-Link.com,2013-05-26 04:56:00,
2013-05-25 22:11:00,52.3,47.0,29.92,NW,315,3.2,-999.0,82,-99.99,,,0.00,Acu-Link.com,2013-05-26 05:11:00,
2013-05-25 22:26:00,52.5,46.8,29.92,NNE,22,2.2,-999.0,81,-99.99,,,0.00,Acu-Link.com,2013-05-26 05:26:00,
2013-05-25 22:42:00,52.5,47.2,29.92,WNW,292,3.2,-999.0,82,-99.99,,,0.00,Acu-Link.com,2013-05-26 05:42:00,
2013-05-25 22:57:00,52.3,47.3,29.91,North,0,3.7,-999.0,83,-99.99,,,0.00,Acu-Link.com,2013-05-26 05:57:00,
2013-05-25 23:12:00,52.0,47.3,29.92,ESE,112,3.2,-999.0,84,-99.99,,,0.00,Acu-Link.com,2013-05-26 06:12:00,
2013-05-25 23:27:00,52.0,47.6,29.92,West,270,2.2,-999.0,85,-99.99,,,0.00,Acu-Link.com,2013-05-26 06:27:00,
2013-05-25 23:42:00,52.0,47.6,29.92,NNE,22,5.3,-999.0,85,-99.99,,,0.00,Acu-Link.com,2013-05-26 06:42:00,
2013-05-25 23:58:00,51.8,47.4,29.94,South,180,2.7,-999.0,85,-99.99,,,0.00,Acu-Link.com,2013-05-26 06:58:00,